Weather History for Haines, AK

Change the Weather History Date:

Thursday, August 21, 2014

  Actual Average Record
Temperature  
Mean Temperature 64 °F -  
Max Temperature 77 °F 59 °F 89 °F (1977)
Min Temperature 52 °F 49 °F 41 °F (1986)
Growing Degree Days 14 (Base 50)    
Moisture  
Dew Point 49 °F    
Average Humidity 64    
Maximum Humidity 93    
Minimum Humidity 35    
Precipitation  
Precipitation 0.00 in - - ()
Sea Level Pressure  
Sea Level Pressure 30.13 in    
Wind  
Wind Speed 10 mph (WNW)    
Max Wind Speed 15 mph    
Max Gust Speed 23 mph    
Visibility 10 miles    
Events      
Averages and records for this station are not official NWS values.
T = Trace of Precipitation, MM = Missing Value Source: NWS Daily Summary

Daily Weather History Graph

Daily Weather History Graph

Search for Another Location

Airport:

Trip Planner

Search our weather history database for the weather conditions in past years. The results will help you decide how hot, cold, wet, or windy it might be!

Date:

Astronomy

Aug. 21, 2014 Rise Set
Actual Time 5:34 AM AKDT 8:34 PM AKDT
Civil Twilight 4:46 AM AKDT 9:21 PM AKDT
Nautical Twilight 3:42 AM AKDT 10:24 PM AKDT
Astronomical Twilight 1:54 AM AKDT 12:06 AM AKDT
Moon 1:46 AM AKDT (8/21) 6:28 PM AKDT (8/21)
Length of Visible Light 16h 34m
Length of Day
15h 00m
Waning Crescent, 12% of the Moon is Illuminated
Aug 21
Waning Crescent
Aug 25
New
Sep 2
First Quarter
Sep 8
Full
Sep 15
Last Quarter

Hourly Weather History & Observations

Time (AKDT) Temp. Dew Point Humidity Pressure Visibility Wind Dir Wind Speed Gust Speed Precip Events Conditions
12:54 AM 57.9 °F 51.1 °F 78% 30.05 in 10.0 mi WNW 11.5 mph - N/A   Clear
1:54 AM 59.0 °F 51.1 °F 75% 30.06 in 10.0 mi NW 15.0 mph - N/A   Clear
2:54 AM 57.9 °F 50.0 °F 75% 30.08 in 10.0 mi NW 12.7 mph 21.9 mph N/A   Clear
3:54 AM 59.0 °F 48.0 °F 67% 30.09 in 10.0 mi WNW 12.7 mph - N/A   Clear
4:54 AM 57.0 °F 48.0 °F 72% 30.10 in 10.0 mi WNW 11.5 mph - N/A   Clear
5:54 AM 55.9 °F 48.0 °F 75% 30.12 in 10.0 mi WNW 15.0 mph - N/A   Clear
6:54 AM 57.9 °F 46.9 °F 67% 30.13 in 10.0 mi NW 15.0 mph 23.0 mph N/A   Clear
7:54 AM 55.9 °F 48.0 °F 75% 30.14 in 10.0 mi WNW 12.7 mph - N/A   Clear
8:54 AM 59.0 °F 48.0 °F 67% 30.14 in 10.0 mi WNW 15.0 mph - N/A   Clear
9:54 AM 62.1 °F 48.9 °F 62% 30.15 in 10.0 mi WNW 12.7 mph - N/A   Clear
10:54 AM 66.9 °F 48.0 °F 51% 30.15 in 10.0 mi NW 12.7 mph - N/A   Clear
11:54 AM 71.1 °F 46.9 °F 42% 30.15 in 10.0 mi WNW 10.4 mph - N/A   Clear
12:54 PM 73.0 °F 48.0 °F 41% 30.14 in 10.0 mi WNW 11.5 mph - N/A   Clear
1:54 PM 75.0 °F 46.9 °F 37% 30.14 in 10.0 mi WNW 9.2 mph - N/A   Clear
2:54 PM 75.9 °F 46.0 °F 35% 30.14 in 10.0 mi WNW 6.9 mph - N/A   Clear
3:54 PM 77.0 °F 48.0 °F 36% 30.13 in 10.0 mi West 4.6 mph - N/A   Clear
4:54 PM 71.1 °F 51.1 °F 49% 30.13 in 10.0 mi ESE 3.5 mph - N/A   Clear
5:54 PM 70.0 °F 50.0 °F 49% 30.13 in 10.0 mi ESE 3.5 mph - N/A   Clear
6:54 PM 66.0 °F 52.0 °F 60% 30.14 in 10.0 mi Calm Calm - N/A   Clear
7:54 PM 62.1 °F 52.0 °F 70% 30.14 in 10.0 mi Calm Calm - N/A   Clear
8:54 PM 57.9 °F 53.1 °F 84% 30.16 in 10.0 mi Calm Calm - N/A   Clear
9:54 PM 57.9 °F 52.0 °F 81% 30.17 in 10.0 mi East 3.5 mph - N/A   Clear
10:54 PM 52.0 °F 50.0 °F 93% 30.18 in 10.0 mi Calm Calm - N/A   Clear
11:54 PM 52.0 °F 50.0 °F 93% 30.19 in 10.0 mi Calm Calm - N/A   Clear